• In Netherlands
  • List of Countries
  • For 7 days
  • Water Temperature
  • Satellite Maps
  • Weather Map
  • Weather Widgets
  • user-avatar
    Login

    Hourly Weather Santiago del Estero

    Today, 21 August, Monday

    Time Temperature Precipitation Wind Pressure Humidity
    00:00 +15°C° 0 mm 4 mps 751 mmHg 28%
    01:00 +14°C° 0 mm 5 mps 751 mmHg 29%
    02:00 +14°C° 0 mm 5 mps 751 mmHg 31%
    03:00 +14°C° 0 mm 5 mps 751 mmHg 32%
    04:00 +13°C° 0 mm 5 mps 750 mmHg 33%
    05:00 +13°C° 0 mm 5 mps 750 mmHg 34%
    06:00 +13°C° 0 mm 6 mps 750 mmHg 34%
    07:00 +14°C° 0 mm 7 mps 750 mmHg 34%
    08:00 +14°C° 0 mm 7 mps 751 mmHg 34%
    09:00 +16°C° 0 mm 8 mps 750 mmHg 30%
    10:00 +18°C° 0 mm 8 mps 750 mmHg 25%
    11:00 +21°C° 0 mm 9 mps 750 mmHg 21%
    12:00 +22°C° 0 mm 9 mps 749 mmHg 19%
    13:00 +24°C° 0 mm 9 mps 748 mmHg 17%
    14:00 +26°C° 0 mm 8 mps 748 mmHg 14%
    15:00 +26°C° 0 mm 8 mps 747 mmHg 14%
    16:00 +24°C° 0 mm 8 mps 746 mmHg 14%
    17:00 +24°C° 0 mm 7 mps 746 mmHg 14%
    18:00 +23°C° 0 mm 7 mps 746 mmHg 15%
    19:00 +21°C° 0 mm 6 mps 746 mmHg 16%
    20:00 +20°C° 0 mm 5 mps 746 mmHg 17%
    21:00 +19°C° 0 mm 6 mps 746 mmHg 18%
    22:00 +19°C° 0 mm 6 mps 745 mmHg 20%
    23:00 +17°C° 0 mm 6 mps 745 mmHg 21%

    Tomorrow, 22 August, Tuesday

    Time Temperature Precipitation Wind Pressure Humidity
    00:00 +17°C° 0 mm 6 mps 744 mmHg 22%
    01:00 +16°C° 0 mm 7 mps 744 mmHg 24%
    02:00 +16°C° 0 mm 7 mps 743 mmHg 25%
    03:00 +15°C° 0 mm 7 mps 743 mmHg 27%
    04:00 +15°C° 0 mm 7 mps 742 mmHg 29%
    05:00 +14°C° 0 mm 7 mps 741 mmHg 31%
    06:00 +15°C° 0 mm 8 mps 741 mmHg 30%
    07:00 +15°C° 0 mm 8 mps 741 mmHg 29%
    08:00 +15°C° 0 mm 9 mps 741 mmHg 29%
    09:00 +18°C° 0 mm 9 mps 740 mmHg 25%
    10:00 +21°C° 0 mm 10 mps 740 mmHg 21%
    11:00 +24°C° 0 mm 10 mps 739 mmHg 17%
    12:00 +26°C° 0 mm 10 mps 738 mmHg 16%
    13:00 +28°C° 0 mm 10 mps 737 mmHg 14%
    14:00 +31°C° 0 mm 10 mps 735 mmHg 13%
    15:00 +29°C° 0 mm 10 mps 735 mmHg 14%
    16:00 +29°C° 0 mm 9 mps 734 mmHg 14%
    17:00 +29°C° 0 mm 9 mps 734 mmHg 15%
    18:00 +27°C° 0 mm 8 mps 734 mmHg 17%
    19:00 +26°C° 0 mm 8 mps 734 mmHg 18%
    20:00 +24°C° 0 mm 7 mps 734 mmHg 20%
    21:00 +23°C° 0 mm 7 mps 734 mmHg 21%
    22:00 +23°C° 0 mm 6 mps 734 mmHg 21%
    23:00 +22°C° 0 mm 6 mps 734 mmHg 22%

    Day after tomorrow, 23 August, Wednesday

    Time Temperature Precipitation Wind Pressure Humidity
    00:00 +22°C° 0 mm 6 mps 734 mmHg 24%
    01:00 +22°C° 0 mm 6 mps 733 mmHg 26%
    02:00 +21°C° 0 mm 5 mps 733 mmHg 27%
    03:00 +20°C° 0 mm 4 mps 733 mmHg 30%
    04:00 +20°C° 0 mm 4 mps 733 mmHg 33%
    05:00 +19°C° 0 mm 3 mps 733 mmHg 36%
    06:00 +19°C° 0 mm 3 mps 735 mmHg 38%
    07:00 +20°C° 0 mm 3 mps 736 mmHg 40%
    08:00 +20°C° 0 mm 3 mps 737 mmHg 42%
    09:00 +22°C° 0 mm 3 mps 737 mmHg 38%
    10:00 +26°C° 0 mm 3 mps 738 mmHg 35%
    11:00 +28°C° 0 mm 3 mps 738 mmHg 31%
    12:00 +29°C° 0 mm 3 mps 738 mmHg 29%
    13:00 +30°C° 0 mm 3 mps 738 mmHg 27%
    14:00 +32°C° 0 mm 2 mps 737 mmHg 24%
    15:00 +31°C° 0 mm 3 mps 738 mmHg 26%
    16:00 +32°C° 0 mm 4 mps 738 mmHg 27%
    17:00 +32°C° 0 mm 4 mps 738 mmHg 28%
    18:00 +29°C° 0 mm 5 mps 739 mmHg 32%
    19:00 +27°C° 0 mm 6 mps 740 mmHg 35%
    20:00 +24°C° 0 mm 6 mps 740 mmHg 38%
    21:00 +23°C° 0 mm 6 mps 740 mmHg 40%
    22:00 +21°C° 0 mm 5 mps 741 mmHg 42%
    23:00 +20°C° 0 mm 4 mps 741 mmHg 44%

    24 August, Thursday

    Time Temperature Precipitation Wind Pressure Humidity
    00:00 +20°C° 0 mm 4 mps 740 mmHg 46%
    01:00 +19°C° 0 mm 3 mps 740 mmHg 49%
    02:00 +19°C° 0 mm 2 mps 739 mmHg 51%
    03:00 +18°C° 0 mm 2 mps 739 mmHg 53%
    04:00 +18°C° 0 mm 2 mps 738 mmHg 55%
    05:00 +18°C° 0 mm 2 mps 738 mmHg 57%
    06:00 +18°C° 0 mm 2 mps 738 mmHg 57%
    07:00 +18°C° 0 mm 2 mps 738 mmHg 57%
    08:00 +19°C° 0 mm 2 mps 739 mmHg 57%
    09:00 +21°C° 0 mm 2 mps 738 mmHg 55%
    10:00 +24°C° 0 mm 2 mps 738 mmHg 53%
    11:00 +26°C° 0 mm 1 mps 738 mmHg 50%
    12:00 +27°C° 0 mm 2 mps 737 mmHg 47%
    13:00 +29°C° 0 mm 2 mps 736 mmHg 43%
    14:00 +30°C° 0 mm 2 mps 735 mmHg 39%
    15:00 +31°C° 0 mm 2 mps 735 mmHg 38%
    16:00 +31°C° 0 mm 2 mps 735 mmHg 37%
    17:00 +31°C° 0 mm 2 mps 734 mmHg 35%
    18:00 +30°C° 0 mm 2 mps 735 mmHg 40%
    19:00 +28°C° 0 mm 2 mps 735 mmHg 44%
    20:00 +26°C° 0 mm 2 mps 735 mmHg 48%
    21:00 +26°C° 0 mm 2 mps 735 mmHg 50%
    22:00 +25°C° 0 mm 2 mps 735 mmHg 52%
    23:00 +24°C° 0 mm 2 mps 736 mmHg 54%

    25 August, Friday

    Time Temperature Precipitation Wind Pressure Humidity
    00:00 +24°C° 0 mm 2 mps 735 mmHg 56%
    01:00 +24°C° 0 mm 2 mps 735 mmHg 58%
    02:00 +23°C° 0 mm 2 mps 735 mmHg 60%
    03:00 +23°C° 0 mm 2 mps 735 mmHg 64%
    04:00 +22°C° 0 mm 1 mps 735 mmHg 68%
    05:00 +22°C° 0 mm 1 mps 735 mmHg 72%
    06:00 +21°C° 0 mm 2 mps 736 mmHg 70%
    07:00 +23°C° 0 mm 2 mps 736 mmHg 67%
    08:00 +24°C° 0 mm 3 mps 736 mmHg 65%
    09:00 +26°C° 0 mm 3 mps 737 mmHg 58%
    10:00 +29°C° 0 mm 4 mps 737 mmHg 52%
    11:00 +32°C° 0 mm 4 mps 737 mmHg 45%
    12:00 +33°C° 0 mm 4 mps 737 mmHg 41%
    13:00 +34°C° 0 mm 5 mps 737 mmHg 38%
    14:00 +35°C° 0 mm 5 mps 736 mmHg 34%
    15:00 +34°C° 0.1 mm 6 mps 737 mmHg 33%
    16:00 +33°C° 0.1 mm 8 mps 737 mmHg 31%
    17:00 +32°C° 0.1 mm 9 mps 738 mmHg 30%
    18:00 +29°C° 0.2 mm 8 mps 739 mmHg 42%
    19:00 +27°C° 0.2 mm 8 mps 740 mmHg 54%
    20:00 +23°C° 0.2 mm 8 mps 741 mmHg 66%
    21:00 +22°C° 0.1 mm 7 mps 741 mmHg 66%
    22:00 +21°C° 0.1 mm 6 mps 742 mmHg 66%
    23:00 +20°C° 0.1 mm 5 mps 742 mmHg 66%

    26 August, Saturday

    Time Temperature Precipitation Wind Pressure Humidity
    00:00 +20°C° 0 mm 4 mps 742 mmHg 68%
    01:00 +19°C° 0 mm 4 mps 742 mmHg 69%
    02:00 +18°C° 0 mm 3 mps 742 mmHg 71%
    03:00 +18°C° 0 mm 3 mps 742 mmHg 72%
    04:00 +18°C° 0 mm 3 mps 742 mmHg 73%
    05:00 +17°C° 0 mm 2 mps 742 mmHg 74%
    06:00 +17°C° 0 mm 3 mps 742 mmHg 73%
    07:00 +18°C° 0 mm 3 mps 743 mmHg 72%
    08:00 +18°C° 0 mm 3 mps 743 mmHg 71%
    09:00 +20°C° 0 mm 3 mps 743 mmHg 65%
    10:00 +21°C° 0 mm 3 mps 743 mmHg 59%
    11:00 +24°C° 0 mm 3 mps 743 mmHg 54%
    12:00 +25°C° 0 mm 3 mps 742 mmHg 49%
    13:00 +26°C° 0 mm 3 mps 741 mmHg 45%
    14:00 +28°C° 0 mm 3 mps 740 mmHg 41%
    15:00 +28°C° 0 mm 3 mps 740 mmHg 41%
    16:00 +28°C° 0 mm 3 mps 739 mmHg 41%
    17:00 +28°C° 0 mm 3 mps 739 mmHg 42%
    18:00 +26°C° 0 mm 3 mps 740 mmHg 48%
    19:00 +25°C° 0 mm 3 mps 740 mmHg 54%
    20:00 +22°C° 0 mm 3 mps 741 mmHg 61%
    21:00 +21°C° 0 mm 3 mps 741 mmHg 67%
    22:00 +20°C° 0 mm 3 mps 741 mmHg 73%
    23:00 +20°C° 0 mm 3 mps 741 mmHg 80%
    Show more